Flag for Kazakhstan Weather past 2 weeks in Shymkent, Kazakhstan

Now
84 °F

Clear.


Feels Like: 81 °F
Forecast: 74 / 102 °F
Wind: 13 mph from East

Location: Shymkent Airport

Current Time: Aug 22, 2014 at 2:46:17 AM

Latest Report: Aug 22, 2014 at 2:00 AM


Visibility: 10 mi

Pressure: 29.65 "Hg

Humidity: 20%

Dew point: 39 °F

Location of ShymkentLocation

Historic Weather in Shymkent — Graph

°F

Shymkent temperature yesterday

Maximum temperature yesterday: 100 °F (at 2:30 PM)
Minimum temperature yesterday: 79 °F (at 6:30 AM)
Average temperature yesterday: 91 °F

Past Weeks' High & Low Weather Summary

 TemperatureHumidityPressure
High100 °F (Aug 11, 4:30 PM)67% (Aug 16, 7:00 AM)29.98 "Hg (Aug 16, 7:00 AM)
Low55 °F (Aug 16, 7:00 AM)5% (Aug 12, 4:30 PM)29.62 "Hg (Aug 14, 2:00 AM)
Average84 °F19%29.78 "Hg
* Reported Aug 7 1:00 AM — Aug 22 1:30 AM, Shymkent, Weather by CustomWeather, © 2014

Note: Actual official high and low records may vary slightly from our data, if they occured in-between our weather recording intervals... More about our weather records

Advertising

Shymkent weather history for previous 24 hours

 ConditionsComfort  
Time TempWeatherWind HumidityBarometerVisibility
1:30 AM
Aug 22
84 °FClear.13 mph20%29.65 "Hg10 mi
1:00 AM86 °FClear.17 mph19%29.65 "Hg10 mi
12:30 AM86 °FClear.17 mph18%29.68 "Hg10 mi
12:00 AM88 °FClear.17 mph17%29.68 "Hg10 mi
11:30 PM
Aug 21
90 °FClear.17 mph16%29.68 "Hg10 mi
11:00 PM90 °FClear.13 mph15%29.68 "Hg10 mi
10:30 PM90 °FClear.15 mph15%29.71 "Hg10 mi
10:00 PM90 °FClear.8 mph15%29.71 "Hg10 mi
9:30 PM90 °FClear.8 mph14%29.71 "Hg5 mi
9:00 PM91 °FClear.8 mph13%29.71 "Hg10 mi
8:30 PM93 °FClear.13 mph12%29.71 "Hg10 mi
8:00 PM95 °FClear.8 mph11%29.71 "Hg10 mi
7:30 PM97 °FClear.6 mph10%29.71 "Hg10 mi
7:00 PM99 °FSunny.8 mph9%29.71 "Hg10 mi
6:30 PM99 °FSunny.8 mph8%29.71 "Hg10 mi
6:00 PM100 °FSunny.8 mph8%29.71 "Hg10 mi
5:30 PM100 °FSunny.6 mph8%29.71 "Hg10 mi
5:00 PM100 °FSunny.6 mph8%29.71 "Hg10 mi
4:30 PM100 °FSunny.15 mph8%29.71 "Hg10 mi
4:00 PM100 °FSunny.6 mph8%29.71 "Hg10 mi
3:30 PM100 °FSunny.6 mph9%29.71 "Hg10 mi
3:00 PM100 °FSunny.6 mph8%29.74 "Hg10 mi
2:30 PM100 °FSunny.6 mph9%29.74 "Hg10 mi
2:00 PM99 °FSunny.10 mph9%29.74 "Hg10 mi
1:30 PM99 °FSunny.10 mph8%29.74 "Hg10 mi
1:00 PM99 °FSunny.15 mph8%29.74 "Hg10 mi
12:30 PM97 °FSunny.10 mph9%29.74 "Hg10 mi
12:00 PM97 °FSunny.10 mph8%29.77 "Hg10 mi
11:30 AM95 °FSunny.13 mph10%29.77 "Hg10 mi
11:00 AM95 °FClear.17 mph10%29.77 "Hg4 mi
10:30 AM93 °FClear.17 mph10%29.77 "Hg4 mi
10:00 AM91 °FSunny.10 mph10%29.77 "Hg10 mi
9:30 AM90 °FSunny.8 mph11%29.77 "Hg10 mi
9:00 AM88 °FSunny.13 mph13%29.77 "Hg10 mi
8:30 AM84 °FSunny.13 mph15%29.77 "Hg10 mi
8:00 AM82 °FSunny.13 mph16%29.77 "Hg10 mi
7:30 AM81 °FSunny.13 mph17%29.77 "Hg10 mi
7:00 AM81 °FSunny.13 mph17%29.77 "Hg10 mi
6:30 AM79 °FSunny.13 mph17%29.77 "Hg10 mi
5:30 AM81 °FClear.15 mph16%29.77 "Hg10 mi
5:00 AM82 °FClear.15 mph15%29.77 "Hg10 mi
4:30 AM82 °FClear.15 mph14%29.77 "Hg10 mi
4:00 AM82 °FClear.15 mph14%29.77 "Hg10 mi
3:30 AM84 °FClear.15 mph13%29.77 "Hg10 mi
3:00 AM84 °FClear.15 mph12%29.77 "Hg10 mi
2:30 AM84 °FClear.8 mph13%29.77 "Hg10 mi
2:00 AM84 °FClear.8 mph12%29.77 "Hg10 mi
Weather by CustomWeather, © 2014

See weather overviewHow to use our weather pages